CAPE
6 0 0 0 0 0 0 0 11 9 8 0 0 0 0 0 0 0 0 14 0 0 29 642 1382 1356 675 262 165 143 42 0 0 0 0 1 12 12 1 19 13 23 6 0 0 0 0 3 19
0 0 0 0 0 0 0 0 0 0 0 0 0 0 0 0 0 0 28 13 0 0 26 125 1518 1101 704 377 326 171 89 17 0 0 0 5 18 15 16 0 0 4 5 0 0 0 0 0 4
0 0 0 0 0 0 0 0 3 0 0 0 0 0 0 0 0 0 3 19 4 0 17 852 1526 1150 981 608 346 158 92 14 0 0 0 10 37 51 8 6 0 0 0 0 0 0 0 0 0
0 0 0 0 0 0 0 0 0 0 0 0 0 0 0 0 0 16 23 20 19 17 40 859 1549 1166 988 717 440 174 99 61 0 0 0 15 20 116 16 0 0 0 0 0 0 0 0 0 8
0 0 0 0 0 0 0 0 0 0 0 0 0 0 0 0 0 3 45 28 37 43 66 403 1336 1069 941 935 461 215 111 23 0 0 3 28 51 173 17 5 0 0 0 0 1 1 0 0 0
0 0 0 0 0 0 0 0 0 0 0 0 0 0 0 0 21 33 59 33 40 66 79 126 765 1156 996 984 410 260 134 38 6 0 4 34 78 14 14 12 0 0 0 3 6 18 18 14 6
0 1 0 0 1 3 0 0 0 0 0 0 0 0 4 0 0 41 79 46 62 100 105 96 100 383 826 956 721 423 196 73 26 1 0 10 1 0 0 0 0 0 2 16 0 1 16 18 15
2 4 2 0 0 0 0 0 0 0 0 0 0 0 21 0 0 29 73 58 80 130 142 120 145 179 518 482 650 517 468 298 154 147 102 10 0 0 0 0 0 0 0 0 0 0 0 0 3
0 6 5 0 0 0 0 0 0 0 0 0 0 0 0 0 0 12 38 50 68 99 198 200 195 260 473 458 551 419 332 248 168 90 16 0 0 0 1 0 0 0 0 0 0 0 0 0 0
0 2 0 0 1 0 1 0 0 0 0 0 0 0 0 0 0 0 0 15 67 80 148 268 286 296 452 357 457 389 302 203 144 65 20 13 0 0 0 0 0 0 0 0 0 0 0 0 0
29 7 1 0 2 0 0 0 0 0 0 0 0 0 0 0 0 0 0 0 1 36 108 164 308 356 414 501 406 391 277 196 115 43 7 0 0 0 0 0 0 0 0 0 0 0 0 0 0
45 22 1 9 3 0 0 0 0 0 0 0 0 0 0 0 0 0 0 0 0 0 6 69 130 317 370 471 467 399 310 250 172 76 14 0 0 0 0 0 0 0 0 0 0 0 0 0 0
40 24 15 4 6 0 0 0 0 0 0 0 0 0 0 0 0 0 0 0 0 0 13 20 51 158 292 406 447 446 351 287 199 168 90 11 0 0 0 0 0 0 0 0 0 0 0 3 6
27 24 14 23 8 0 0 0 0 0 0 0 0 0 0 0 0 0 0 0 0 0 9 20 27 39 123 293 419 420 402 304 248 182 151 60 10 2 2 1 3 3 4 4 6 6 10 13 10
78 43 23 31 27 0 1 0 0 0 0 0 0 0 0 0 0 0 0 0 0 0 0 0 0 1 52 188 338 426 421 304 265 215 133 51 12 3 3 3 5 11 14 12 9 11 8 8 8
49 149 33 20 18 0 1 0 0 0 0 0 0 0 0 0 0 0 0 0 0 0 0 0 0 0 0 136 277 354 353 273 233 159 77 26 6 3 4 9 9 9 4 9 6 3 12 8 7
104 55 31 28 14 0 6 0 0 0 0 0 0 0 0 0 0 0 0 0 0 0 0 0 0 0 3 152 223 196 121 86 47 18 12 7 6 4 5 4 1 0 2 1 0 0 0 0 0
13 44 38 34 7 4 1 0 0 0 0 0 0 0 0 0 0 0 0 0 0 0 0 0 4 14 46 82 76 84 80 14 0 0 0 0 0 0 0 0 0 0 0 0 0 0 0 0 0
59 70 31 38 0 19 7 0 0 0 0 0 0 0 0 0 0 0 0 0 0 0 0 0 7 33 74 119 99 0 0 0 0 0 0 0 0 0 0 0 0 0 0 0 0 0 0 0 0
27 62 53 19 15 3 0 0 0 0 0 0 0 0 0 0 0 0 0 0 0 0 0 0 0 16 17 0 0 0 0 0 0 0 0 0 0 0 0 0 0 0 0 0 0 0 0 0 0
27 79 19 13 29 0 0 0 0 0 0 0 0 0 0 0 0 0 0 0 0 0 0 0 0 0 0 0 0 0 0 0 0 0 0 0 0 0 0 0 0 0 0 0 0 0 0 0 0
177 33 19 5 18 13 14 0 0 0 0 0 0 0 0 0 0 0 0 0 0 0 0 0 0 0 0 0 0 0 0 0 0 0 0 0 0 0 0 0 0 0 0 0 0 0 0 0 0
51 46 1 21 31 20 11 9 0 0 0 0 0 0 0 0 0 0 0 0 0 0 0 0 0 0 0 0 0 0 0 0 0 0 0 0 0 0 0 0 0 0 0 0 0 0 0 0 0
32 21 44 22 25 18 0 9 0 0 0 0 0 0 0 0 0 0 0 0 0 0 0 0 0 0 0 0 0 0 0 0 0 0 0 0 0 0 0 0 0 0 0 0 0 0 0 0 0
28 41 56 33 32 0 0 13 5 0 0 0 0 0 0 0 0 0 0 0 0 0 0 0 0 0 0 0 0 0 0 0 0 0 0 0 0 0 0 0 0 0 0 0 0 0 0 0 0
46 1 7 15 7 0 0 0 0 0 0 0 0 0 0 0 0 0 0 0 0 0 0 0 0 0 0 0 0 0 0 0 0 0 0 0 0 0 0 0 0 0 0 0 0 0 0 0 0
22 63 0 0 0 35 0 0 0 0 0 0 0 0 0 0 0 0 0 0 0 0 0 0 0 0 0 0 0 0 0 0 0 0 0 0 0 0 0 0 0 0 0 0 0 0 0 0 0
0 18 4 0 0 4 0 0 0 0 0 0 0 0 0 0 0 0 0 0 0 0 0 0 0 0 0 0 0 0 0 0 0 0 0 0 0 0 0 0 0 0 0 0 0 0 0 0 0
1 32 15 2 0 44 9 1 0 0 0 0 0 0 0 0 0 0 0 0 0 0 0 0 0 0 0 0 0 0 0 0 0 0 0 0 0 0 0 0 0 0 0 0 0 0 0 0 0
7 9 25 35 0 0 0 0 0 0 0 0 0 0 0 0 0 0 0 0 0 0 0 0 0 0 0 0 0 0 0 0 0 0 0 0 0 0 0 0 0 0 0 0 0 0 0 0 0
CIN
-18 0 0 0 0 0 0 0 0 -8 -14 0 0 0 0 0 0 0 0 -252 0 0 -255 -159 -45 -42 -82 -147 -231 -222 -374 0 0 0 0 -0 -2 -5 -1 -6 -2 -1 -0 0 0 0 0 -8 -8
0 0 0 0 0 0 0 0 0 0 0 0 0 0 0 0 0 0 -125 -276 0 0 -256 -271 -35 -51 -74 -112 -134 -191 -297 -418 0 0 0 -5 -1 -8 -3 0 0 -4 -2 0 0 0 0 0 -8
0 0 0 0 0 0 0 0 0 0 0 0 0 0 0 0 0 0 -174 -294 -318 0 -335 -111 -33 -44 -45 -70 -107 -220 -325 -423 0 0 0 -3 -234 -393 -3 -6 0 0 0 0 0 0 0 0 0
0 0 0 0 0 0 0 0 0 0 0 0 0 0 0 0 0 -189 -259 -277 -261 -320 -330 -152 -41 -46 -40 -52 -76 -197 -288 -369 0 0 0 -19 -581 -388 -9 -0 0 0 0 0 0 0 0 0 -0
0 0 0 0 0 0 0 0 0 0 0 0 0 0 0 0 0 -127 -238 -261 -223 -270 -269 -221 -61 -59 -50 -42 -84 -174 -268 -454 0 0 -8 -236 -510 -321 -4 -13 0 0 0 0 -0 0 0 0 0
0 0 0 0 0 0 0 0 0 0 0 0 0 0 0 0 -166 -247 -258 -241 -237 -240 -275 -303 -138 -56 -48 -34 -94 -157 -257 -421 -547 0 -3 -582 -494 -398 -5 -7 0 0 0 -2 -1 -2 -2 -4 -7
0 0 0 0 0 -0 0 0 0 0 0 0 0 0 -3 0 0 -250 -216 -228 -239 -225 -259 -292 -364 -194 -78 -40 -55 -101 -210 -339 -469 -152 0 -4 -3 0 0 0 0 0 -0 -3 0 -0 0 -0 -0
-1 0 0 0 0 0 0 0 0 0 0 0 0 0 -2 0 0 -252 -239 -228 -212 -223 -227 -230 -263 -267 -140 -135 -86 -105 -92 -145 -251 -283 -350 -553 0 0 0 0 -0 0 0 0 0 0 0 0 -0
0 0 0 0 0 0 0 0 0 0 0 0 0 0 0 0 0 -205 -225 -230 -212 -212 -201 -204 -221 -194 -125 -112 -120 -145 -150 -181 -243 -350 -507 0 0 -0 0 0 0 0 0 0 0 0 0 0 0
0 0 0 0 -0 0 -0 0 0 0 0 0 0 0 0 0 0 0 0 -138 -188 -205 -209 -186 -191 -182 -144 -138 -105 -128 -130 -182 -259 -356 -433 -405 0 0 0 0 0 0 0 0 0 0 0 0 0
0 0 -0 -0 -1 0 0 0 0 0 0 0 0 0 0 0 0 0 0 0 -19 -161 -188 -212 -182 -176 -139 -113 -112 -92 -119 -163 -259 -328 -432 0 0 0 0 0 0 0 0 0 0 0 0 0 0
0 -1 0 -0 -0 0 0 0 0 0 0 0 0 0 0 0 0 0 0 0 0 0 -211 -254 -231 -168 -146 -114 -115 -83 -100 -135 -195 -279 -371 0 0 0 0 0 0 0 0 0 0 0 0 0 0
-0 0 -1 -0 -0 0 0 0 0 0 0 0 0 0 0 0 0 0 0 0 0 -32 -215 -259 -272 -195 -160 -139 -89 -71 -78 -118 -166 -175 -232 -337 -0 0 -0 0 0 0 0 0 0 0 -0 -1 -0
-2 -0 -0 -0 -1 0 0 0 0 0 0 0 0 0 0 0 0 0 0 0 0 -72 -261 -300 -311 -297 -230 -157 -102 -62 -63 -90 -109 -153 -165 -218 -261 -0 0 0 -0 -0 -0 -0 -0 0 -0 -0 0
-2 -6 0 -1 -1 0 -0 0 0 0 0 0 0 0 0 0 0 0 0 0 0 0 0 0 0 -16 -346 -219 -115 -63 -59 -83 -97 -117 -162 -207 -224 -0 0 0 -0 0 -0 0 0 0 -2 -2 -6
-0 -1 -3 0 -0 0 0 0 0 0 0 0 0 0 0 0 0 0 0 0 0 0 0 0 0 0 0 -299 -148 -89 -72 -89 -96 -134 -182 -216 -101 -0 0 0 -0 -1 -3 -5 -12 -4 -1 -0 -0
-0 0 0 -0 -0 0 -0 0 0 0 0 0 0 0 0 0 0 0 0 0 0 0 0 0 0 0 -193 -299 -201 -186 -218 -216 -253 -264 -252 0 -0 -0 0 -1 -2 -0 -1 0 0 0 0 0 0
0 -1 -0 0 -0 -0 -0 0 0 0 0 0 0 0 0 0 0 0 0 0 0 0 0 0 -548 -531 -452 -360 -321 -273 -241 -64 0 0 0 0 0 0 0 0 0 0 0 0 0 0 0 0 0
-0 0 0 -15 0 -0 0 0 0 0 0 0 0 0 0 0 0 0 0 0 0 0 0 0 -412 -368 -298 -219 -217 -1 0 0 0 0 0 0 0 0 0 0 0 0 0 0 0 0 0 0 0
-10 0 -2 -5 -2 -2 0 0 0 0 0 0 0 0 0 0 0 0 0 0 0 0 0 0 0 -291 -304 0 0 0 0 0 0 0 0 0 0 0 0 0 0 0 0 0 0 0 0 0 0
-12 -0 -30 -0 -0 0 0 0 0 0 0 0 0 0 0 0 0 0 0 0 0 0 0 0 0 0 0 0 0 0 0 0 0 0 0 0 0 0 0 0 0 0 0 0 0 0 0 0 0
0 -5 -13 -4 -31 -17 0 0 0 0 0 0 0 0 0 0 0 0 0 0 0 0 0 0 0 0 0 0 0 0 0 0 0 0 0 0 0 0 0 0 0 0 0 0 0 0 0 0 0
-9 -6 -5 -6 -31 0 -5 0 0 0 0 0 0 0 0 0 0 0 0 0 0 0 0 0 0 0 0 0 0 0 0 0 0 0 0 0 0 0 0 0 0 0 0 0 0 0 0 0 0
-22 -11 -3 -1 0 0 0 0 0 0 0 0 0 0 0 0 0 0 0 0 0 0 0 0 0 0 0 0 0 0 0 0 0 0 0 0 0 0 0 0 0 0 0 0 0 0 0 0 0
-2 -13 -0 -0 0 0 -0 -0 -2 0 0 0 0 0 0 0 0 0 0 0 0 0 0 0 0 0 0 0 0 0 0 0 0 0 0 0 0 0 0 0 0 0 0 0 0 0 0 0 0
-5 -2 0 -0 0 0 0 0 0 0 0 0 0 0 0 0 0 0 0 0 0 0 0 0 0 0 0 0 0 0 0 0 0 0 0 0 0 0 0 0 0 0 0 0 0 0 0 0 0
-0 -4 0 -4 0 -0 0 0 0 0 0 0 0 0 0 0 0 0 0 0 0 0 0 0 0 0 0 0 0 0 0 0 0 0 0 0 0 0 0 0 0 0 0 0 0 0 0 0 0
-17 -52 -15 0 0 -38 0 0 0 0 0 0 0 0 0 0 0 0 0 0 0 0 0 0 0 0 0 0 0 0 0 0 0 0 0 0 0 0 0 0 0 0 0 0 0 0 0 0 0
-0 -25 -66 -17 0 -1 -5 -0 0 0 0 0 0 0 0 0 0 0 0 0 0 0 0 0 0 0 0 0 0 0 0 0 0 0 0 0 0 0 0 0 0 0 0 0 0 0 0 0 0
-54 -110 -59 -38 -3 0 -0 0 0 0 0 0 0 0 0 0 0 0 0 0 0 0 0 0 0 0 0 0 0 0 0 0 0 0 0 0 0 0 0 0 0 0 0 0 0 0 0 0 0
Wind_Speed
17 11 5 5 6 7 12 11 2 6 3 5 8 9 11 11 8 5 4 7 4 8 12 14 11 14 15 13 12 12 10 7 4 2 1 2 2 2 2 3 6 5 4 5 6 7 8 7 10
12 12 6 3 5 9 10 10 8 2 7 10 10 7 7 3 5 8 6 7 4 7 9 13 11 14 14 13 12 10 9 6 4 2 2 2 3 3 4 1 2 4 5 5 6 8 7 9 9
14 8 7 4 5 9 8 2 3 6 10 6 5 4 6 4 8 5 6 8 5 7 8 11 14 11 12 12 11 10 8 6 3 2 4 5 5 6 4 3 2 4 6 4 5 7 7 7 9
6 5 5 9 12 6 10 4 5 9 5 1 7 10 5 9 5 7 6 6 6 7 8 13 12 10 10 9 10 9 7 6 3 2 4 5 6 5 6 6 5 2 2 4 5 5 6 7 8
6 6 9 13 11 6 8 6 6 7 8 8 5 6 3 7 5 4 5 4 5 6 7 11 10 9 8 8 10 8 6 4 3 2 5 6 6 4 4 6 4 2 1 3 5 5 6 6 6
6 5 12 12 14 5 7 6 8 8 7 8 6 9 4 9 7 5 4 5 4 6 6 11 9 6 5 9 9 7 5 4 3 3 6 5 8 7 3 6 3 2 3 4 5 8 9 8 8
12 11 14 18 14 9 6 1 10 6 11 7 7 7 9 12 7 2 4 5 5 7 7 8 11 10 4 9 10 9 7 5 5 4 6 3 3 3 2 4 4 4 6 6 7 9 11 10 10
11 12 19 16 12 16 3 4 5 9 10 9 3 5 2 9 6 2 2 4 6 6 7 8 9 11 11 11 11 9 8 6 5 4 4 4 3 6 7 4 9 4 6 8 9 11 12 11 10
10 13 15 19 16 12 5 6 5 5 11 11 9 8 6 4 1 2 3 5 6 6 8 7 9 9 9 9 13 11 9 9 7 8 9 6 7 8 9 4 2 4 7 10 12 12 13 12 11
13 14 21 16 12 12 6 7 8 10 12 12 11 10 3 3 5 6 5 6 9 9 9 9 8 9 8 6 10 8 10 9 10 10 8 9 6 3 2 2 4 8 10 11 13 13 14 10 9
18 20 18 19 11 12 12 12 13 10 14 15 7 9 11 10 11 10 7 6 8 10 8 10 9 9 9 7 6 4 4 4 4 5 5 4 3 4 4 4 4 5 7 6 7 9 8 9 7
23 21 23 19 12 10 14 13 15 16 16 15 15 16 15 12 11 8 7 7 5 7 8 8 9 9 9 7 6 5 4 4 3 4 5 4 3 3 4 4 3 4 4 5 5 5 7 9 10
24 22 20 21 14 13 14 17 17 21 20 18 17 14 16 12 11 9 6 5 5 6 7 7 8 9 9 9 6 6 5 5 4 3 3 3 3 4 4 3 4 4 5 5 6 7 7 9 10
11 23 23 17 19 18 17 19 17 20 19 18 18 16 11 12 8 8 6 5 4 3 4 5 7 9 9 8 8 5 4 4 4 2 3 3 3 4 4 5 5 5 5 6 6 7 8 8 9
16 22 21 25 18 19 14 22 23 20 22 13 13 13 10 6 6 4 2 4 2 1 1 4 4 7 9 8 7 5 4 2 2 2 1 2 4 4 5 5 5 5 5 8 7 8 8 7 7
26 22 18 19 22 21 16 22 16 12 5 12 10 6 4 4 3 1 1 1 2 1 0 2 2 5 7 6 5 4 3 2 1 1 1 1 4 4 5 4 5 7 6 5 5 5 6 8 8
16 21 25 20 23 20 21 19 16 20 7 13 11 9 5 4 3 3 3 3 4 5 5 6 5 6 7 6 5 5 5 3 4 3 5 6 6 6 4 5 5 6 4 6 7 7 8 7 7
19 28 17 24 22 17 21 20 19 18 16 12 12 12 8 7 5 5 6 7 7 7 9 10 9 10 10 7 7 7 7 8 9 8 9 10 9 10 8 6 7 7 6 6 6 8 8 8 8
22 17 23 21 22 20 18 19 23 18 19 16 12 11 10 9 7 7 8 9 9 10 11 11 11 11 9 8 8 8 8 8 8 8 11 10 10 10 9 7 7 7 7 8 9 8 9 8 9
22 22 24 17 11 13 16 18 18 19 17 18 15 14 13 11 11 10 10 10 11 12 12 12 12 11 10 8 8 8 9 8 8 8 9 9 10 10 9 9 8 9 8 9 9 9 8 8 8
23 28 20 16 14 10 14 19 22 19 23 16 11 12 14 14 13 13 13 12 11 12 12 12 13 13 12 12 8 8 8 7 7 7 6 8 10 11 11 10 9 9 8 7 8 8 10 8 8
27 16 12 15 7 9 11 7 5 11 13 12 12 13 15 15 14 13 13 13 12 12 11 12 12 12 10 10 9 11 8 8 6 5 6 6 9 9 10 9 9 9 7 8 7 8 8 8 8
14 16 16 13 12 7 12 7 13 8 16 14 13 15 16 16 16 15 13 13 12 10 10 11 12 12 11 11 10 8 9 7 5 4 5 6 6 8 10 9 8 8 6 8 8 9 9 7 7
14 17 11 6 7 7 15 13 11 12 10 8 14 15 16 17 16 14 13 12 12 10 10 10 12 12 11 11 11 11 10 8 6 6 5 5 5 5 8 9 8 8 7 8 7 8 10 9 8
18 20 7 5 6 7 4 13 9 10 6 6 15 17 18 17 16 15 14 12 12 11 10 10 11 12 11 11 11 10 9 8 8 6 5 6 6 6 8 8 9 7 8 8 8 8 9 8 8
21 15 8 8 9 11 7 8 5 8 4 4 13 17 17 17 15 15 14 12 12 11 10 11 11 11 10 10 10 9 8 5 5 6 6 5 5 6 8 8 9 10 10 10 9 7 7 9 8
17 21 5 1 5 8 9 10 7 5 7 8 14 18 18 18 16 16 14 12 12 11 10 10 10 10 9 8 7 7 7 7 6 6 6 5 5 6 8 8 9 10 10 10 10 7 10 10 10
11 13 8 5 8 5 8 8 8 10 8 7 14 19 18 18 17 15 13 13 11 11 10 10 9 9 8 7 6 6 6 6 5 5 6 6 6 7 8 9 9 10 11 11 11 10 10 12 9
7 12 5 4 4 3 7 5 11 4 2 7 12 17 18 18 16 15 13 12 11 10 10 9 9 8 7 6 6 6 5 5 5 5 6 6 7 7 8 9 10 11 12 12 12 13 13 12 13
10 8 9 7 4 3 6 7 4 4 4 4 10 15 17 17 16 15 14 13 12 11 10 9 8 7 6 5 5 5 4 5 5 5 6 6 7 8 8 9 11 12 12 13 13 13 13 14 15
Wind_Direction
302 320 310 267 259 232 242 233 353 227 235 1 308 293 321 306 329 22 111 100 92 130 142 167 175 169 164 172 161 156 159 160 164 194 200 169 203 191 102 58 26 24 18 27 2 359 7 10 10
309 309 253 271 260 256 235 209 210 242 330 314 281 264 246 285 47 100 152 109 97 124 144 173 172 161 169 178 166 163 163 161 171 207 254 250 291 228 171 72 8 359 358 11 11 356 346 20 5
290 278 277 259 243 258 307 131 294 333 296 300 282 234 317 43 63 62 69 118 122 128 149 123 146 164 177 175 164 166 162 164 181 190 264 290 319 226 190 138 89 31 6 0 338 349 333 355 347
316 235 227 249 256 270 263 285 336 304 282 240 312 277 137 44 25 37 90 129 143 139 146 120 140 174 165 184 168 164 163 176 178 258 272 281 296 253 169 147 129 89 11 345 336 341 342 333 315
251 267 260 256 264 248 269 273 259 292 298 304 327 286 357 60 55 65 120 139 136 136 131 140 146 171 182 195 163 161 170 173 190 228 266 297 287 260 193 165 140 108 335 322 316 311 299 294 300
256 257 256 251 248 188 268 260 262 270 277 285 275 312 79 61 34 68 127 144 132 137 139 134 150 174 192 174 171 176 185 185 200 235 270 31 55 61 64 150 171 224 287 294 298 291 292 271 267
247 251 254 263 275 268 277 320 252 317 282 261 326 270 118 59 45 72 130 138 159 148 156 153 167 180 195 169 188 182 189 205 222 229 264 327 90 92 113 170 225 276 287 291 297 296 306 291 275
261 245 255 253 258 254 140 260 263 277 282 347 302 271 88 46 39 91 154 175 175 173 176 173 173 174 178 181 199 192 189 199 229 245 266 290 266 225 221 222 234 267 289 289 288 287 291 292 296
246 251 242 243 247 254 137 258 303 286 272 279 274 278 41 28 92 141 191 210 209 196 190 192 181 186 193 196 170 182 201 208 216 226 229 227 242 224 204 152 135 282 282 278 275 280 283 286 286
228 228 242 248 253 255 262 258 295 292 283 273 272 235 233 262 290 291 259 225 205 207 204 200 205 192 197 190 161 199 194 202 208 220 202 210 226 253 300 318 207 244 259 267 271 267 266 272 263
221 241 240 248 251 268 272 276 273 276 276 270 294 305 303 311 291 282 257 254 239 206 203 204 199 202 200 199 199 206 200 210 217 239 232 234 243 247 221 237 218 228 217 242 249 239 225 247 277
229 239 244 255 234 244 251 275 283 270 276 286 285 287 293 290 280 274 286 288 234 217 205 198 214 199 216 202 197 212 200 197 211 201 229 234 234 235 257 268 271 260 257 268 267 275 280 279 275
239 236 239 249 243 235 264 264 269 276 278 278 276 276 276 274 274 280 281 277 267 218 204 216 214 221 206 213 212 208 206 185 218 204 229 251 251 272 288 290 291 287 282 282 280 280 285 283 283
229 238 247 232 241 245 257 264 268 270 276 284 285 281 272 257 289 291 258 282 249 211 231 236 224 226 224 210 206 212 202 204 196 226 209 250 276 296 308 292 272 281 287 287 289 296 295 288 288
232 252 230 245 240 249 256 263 260 267 262 282 284 267 253 266 267 271 309 273 330 331 315 246 265 253 222 215 197 199 192 216 205 196 252 272 271 275 290 297 301 300 307 310 301 303 314 319 314
223 242 244 237 230 239 235 258 261 259 225 255 295 277 222 215 245 186 152 206 116 115 45 30 249 222 212 198 183 162 149 166 132 53 18 321 306 320 311 308 323 345 325 335 336 308 302 314 317
214 226 221 236 242 224 215 253 251 243 235 259 270 224 205 165 160 104 94 88 73 69 77 79 82 115 140 139 118 100 91 92 65 54 43 34 33 19 355 19 17 349 352 344 353 340 329 320 312
203 214 218 221 230 209 239 239 249 263 236 265 265 243 192 185 137 103 99 87 84 85 90 90 93 102 110 121 118 110 90 67 57 54 53 48 46 37 34 35 25 4 2 357 348 337 335 325 320
209 214 216 230 217 234 241 250 253 240 243 255 248 242 197 171 137 122 112 105 96 88 85 87 101 117 122 122 114 105 102 96 84 70 62 53 42 40 31 21 14 5 357 357 350 341 336 329 329
233 209 208 224 211 200 246 254 254 246 244 249 247 216 195 151 158 135 122 110 96 91 89 87 83 85 87 90 88 94 94 88 89 78 63 57 47 36 32 20 10 7 352 355 351 347 338 327 336
221 213 217 217 192 228 265 265 257 249 245 246 234 232 182 175 159 144 131 115 103 92 89 88 87 92 95 102 104 104 107 102 86 73 70 46 48 36 28 20 8 2 353 353 350 344 340 327 327
210 207 213 210 190 223 203 274 216 221 194 199 197 197 169 168 157 144 134 122 108 99 94 94 92 93 91 89 86 86 91 92 78 72 59 58 42 40 22 14 7 0 352 355 345 349 337 334 323
207 189 196 200 209 275 229 250 259 204 199 190 198 183 169 164 156 148 138 125 110 106 100 97 93 88 83 84 93 98 100 95 80 74 56 48 45 36 22 6 6 2 2 352 343 340 335 329 329
214 170 176 193 216 238 236 224 261 183 204 193 173 174 167 163 156 145 135 128 117 116 109 105 102 94 87 85 84 86 84 76 74 54 42 28 29 22 27 1 2 0 356 346 338 335 332 326 318
157 170 141 163 193 226 164 204 233 123 137 162 171 170 167 161 157 152 151 140 135 129 121 115 105 97 90 86 83 81 77 71 66 45 33 22 12 13 10 358 354 353 345 338 335 339 314 318 312
183 168 160 162 191 193 146 220 219 93 110 171 167 167 165 166 161 164 155 147 138 137 130 122 112 104 95 89 84 74 64 59 52 39 27 23 10 1 355 352 347 344 339 333 330 318 317 300 311
195 203 38 126 25 163 166 228 153 156 140 170 171 167 170 172 167 167 155 152 144 141 132 124 117 109 100 93 83 73 66 58 45 34 28 12 3 349 351 345 339 333 328 327 324 316 308 313 306
200 172 180 229 165 197 159 185 121 171 144 161 184 173 173 173 167 162 161 154 147 139 131 128 121 112 103 95 82 73 62 52 36 33 17 4 353 350 342 337 333 326 326 325 324 314 313 308 308
175 172 230 309 328 231 153 143 90 79 97 171 182 176 174 172 169 163 165 154 146 144 143 133 125 122 113 98 86 73 57 41 32 20 4 358 341 343 334 332 327 325 326 323 318 314 309 312 307
183 192 203 208 175 283 330 99 134 74 94 171 162 174 169 169 170 168 162 157 158 156 147 145 135 127 110 98 89 72 52 27 17 6 356 344 339 334 332 328 323 320 316 316 312 311 308 312 307